Location: Cicognara
(44.9500°N, 10.4667°E)
Time: 09:26:11
(UTC+00:00)

ARIANE 5 R/B - Pass Details

Date: 20 June 2021
Orbit: 620 x 656 km, 98.1° (Epoch: 28 July)

Event Time Altitude Azimuth Distance (km) Brightness Sun altitude
Exits shadow 21:38:37 12° 217° (SW) 1,872 4.7 -17.8°
Maximum altitude 21:41:40 24° 266° (W) 1,350 4.5 -18.0°
Drops below altitude 10° 21:45:18 10° 320° (NW) 2,063 6.4 -18.3°
Sets 21:47:55 0° 335° (NNW) 2,984 7.8 -18.5°
